DW1274 Weather Reports


Display with metric or nautical units.
time (UTC)temp
F
wind
direction
speed
MPH
gust
MPH
rain 1hr
in
rain 24hr
in
rain mn
in
humidity
%
barometer
mb
20260507101513 66 0 0.0 1.0 0.00 0.01 0.00 94 1013.3
20260507101009 67 0 0.0 1.0 0.00 0.01 0.00 94 1013.3
20260507100501 67 0 0.0 2.0 0.00 0.01 0.00 94 1013.2
20260507100003 67 0 0.0 4.0 0.00 0.01 0.00 94 1013.3
20260507095501 67 9 1.0 4.0 0.00 0.01 0.00 94 1013.2
20260507095001 67 265 0.0 2.0 0.00 0.01 0.00 93 1013.1
20260507093502 67 0 0.0 3.0 0.00 0.01 0.00 93 1012.9
20260507093001 68 0 1.0 4.0 0.00 0.01 0.00 93 1012.8
20260507092502 68 289 1.0 4.0 0.00 0.01 0.00 92 1012.9
20260507092000 68 0 0.0 1.0 0.00 0.01 0.00 92 1012.7
20260507091501 68 0 0.0 1.0 0.00 0.01 0.00 92 1012.7
20260507090501 68 0 0.0 2.0 0.00 0.01 0.00 92 1012.7
20260507090001 68 215 1.0 2.0 0.00 0.01 0.00 92 1012.6
20260507085502 68 223 1.0 3.0 0.00 0.01 0.00 92 1012.5
20260507085000 68 237 1.0 3.0 0.00 0.01 0.00 92 1012.4
20260507084000 68 0 1.0 3.0 0.00 0.01 0.00 92 1012.0
20260507083501 68 0 0.0 2.0 0.00 0.01 0.00 92 1012.0
20260507083001 68 221 0.0 2.0 0.00 0.01 0.00 91 1012.0
20260507082502 68 0 0.0 1.0 0.00 0.01 0.00 91 1012.0
20260507082001 68 0 0.0 2.0 0.00 0.01 0.00 91 1011.9
20260507081501 69 0 0.0 2.0 0.00 0.01 0.00 91 1011.9
20260507080501 69 0 0.0 2.0 0.00 0.01 0.00 91 1011.9
20260507080002 69 0 0.0 0.0 0.00 0.01 0.00 90 1012.0
20260507075001 70 0 2.0 3.0 0.00 0.01 0.00 90 1012.2
20260507074500 70 286 1.0 3.0 0.00 0.01 0.00 89 1012.1
20260507074000 71 319 0.0 2.0 0.00 0.01 0.00 89 1012.2
20260507073502 71 0 0.0 2.0 0.00 0.01 0.00 88 1012.1
20260507073001 71 0 1.0 2.0 0.00 0.01 0.00 88 1012.1
20260507072502 71 178 0.0 2.0 0.00 0.01 0.00 88 1012.3
20260507072001 71 167 0.0 2.0 0.00 0.01 0.00 88 1012.3
20260507071001 71 0 1.0 2.0 0.00 0.01 0.00 88 1012.6
20260507070501 71 0 1.0 2.0 0.00 0.01 0.00 88 1012.6
20260507070002 71 169 1.0 2.0 0.00 0.01 0.00 89 1012.5
20260507065503 71 230 1.0 2.0 0.00 0.01 0.00 88 1012.6
20260507064502 70 0 0.0 1.0 0.00 0.01 0.00 89 1012.7
20260507062947 69 0 0.0 1.0 0.00 0.01 0.00 91 1012.9
20260507062446 69 0 0.0 1.0 0.00 0.01 0.00 90 1012.9
20260507061947 69 0 0.0 2.0 0.00 0.01 0.00 91 1013.0
20260507060450 69 0 0.0 2.0 0.00 0.01 0.00 90 1013.3
20260507055947 69 0 0.0 2.0 0.00 0.01 0.00 90 1013.4
20260507055446 70 0 0.0 0.0 0.00 0.01 0.00 90 1013.5
20260507054947 70 0 0.0 0.0 0.00 0.01 0.00 90 1013.6
20260507054445 70 0 0.0 2.0 0.00 0.01 0.00 90 1013.6
20260507053934 70 0 0.0 2.0 0.00 0.01 0.00 90 1013.6
20260507052934 71 0 0.0 0.0 0.00 0.01 0.00 90 1013.8
20260507052433 71 0 0.0 2.0 0.00 0.01 0.00 89 1013.9
20260507051434 71 0 0.0 0.0 0.00 0.01 0.00 89 1014.0
20260507050933 71 0 0.0 0.0 0.00 0.01 0.00 89 1014.1
20260507050434 71 0 0.0 0.0 0.00 0.01 0.00 89 1014.0
20260507045931 71 0 0.0 1.0 0.00 0.01 0.00 89 1014.0
20260507045430 71 0 0.0 1.0 0.00 0.01 0.00 89 1014.1
20260507044429 71 0 0.0 0.0 0.00 0.01 0.00 88 1013.7
20260507043430 71 0 0.0 1.0 0.00 0.01 0.00 88 1013.7
20260507042929 71 0 0.0 0.0 0.00 0.01 0.00 88 1013.9
20260507042425 71 135 0.0 1.0 0.00 0.01 0.00 88 1013.9
20260507041919 71 135 0.0 1.0 0.00 0.01 0.00 88 1013.9
20260507041419 72 0 0.0 0.0 0.00 0.01 0.00 87 1014.0
20260507040413 72 0 0.0 0.0 0.00 0.01 0.00 86 1014.3
20260507035902 72 0 0.0 0.0 0.00 0.01 0.01 86 1014.2
20260507035400 72 0 0.0 0.0 0.00 0.01 0.01 85 1014.3
20260507034851 73 0 0.0 0.0 0.00 0.01 0.01 85 1014.4
20260507034350 73 0 0.0 1.0 0.00 0.01 0.01 85 1014.3
20260507033351 73 0 0.0 0.0 0.00 0.01 0.01 86 1014.3
20260507032852 73 0 0.0 0.0 0.00 0.01 0.01 86 1014.2
20260507032349 73 0 0.0 0.0 0.00 0.01 0.01 84 1014.1
20260507031850 73 0 0.0 0.0 0.00 0.01 0.01 83 1014.0
20260507031350 74 0 0.0 0.0 0.00 0.01 0.01 84 1014.0
20260507030848 74 0 0.0 0.0 0.00 0.01 0.01 83 1014.2
20260507030352 74 0 0.0 0.0 0.00 0.01 0.01 83 1014.2
20260507025849 75 0 0.0 0.0 0.00 0.01 0.01 82 1014.2
20260507025349 75 0 0.0 0.0 0.00 0.01 0.01 81 1014.0
20260507024850 75 0 0.0 0.0 0.00 0.01 0.01 81 1014.0
20260507024350 75 0 0.0 0.0 0.00 0.01 0.01 81 1014.0
20260507023846 76 0 0.0 1.0 0.00 0.01 0.01 80 1014.0
20260507022846 76 0 0.0 2.0 0.00 0.01 0.01 79 1014.1
20260507022346 77 0 1.0 2.0 0.00 0.01 0.01 78 1014.0
20260507021846 78 173 1.0 2.0 0.00 0.01 0.01 76 1014.0
20260507021346 78 0 0.0 2.0 0.00 0.01 0.01 76 1014.1
20260507020845 78 126 0.0 2.0 0.00 0.01 0.01 75 1014.1
20260507020343 78 0 0.0 2.0 0.00 0.01 0.01 73 1014.1
20260507015844 79 0 0.0 2.0 0.00 0.01 0.01 74 1014.1
20260507015338 79 69 1.0 2.0 0.00 0.01 0.01 73 1014.0
20260507014838 79 139 1.0 2.0 0.00 0.01 0.01 72 1013.9
20260507014338 80 100 1.0 2.0 0.00 0.01 0.01 70 1013.8
20260507013837 80 143 0.0 2.0 0.00 0.01 0.01 68 1013.8
20260507013338 81 0 2.0 5.0 0.00 0.01 0.01 67 1013.9
20260507012834 80 247 2.0 5.0 0.00 0.01 0.01 67 1013.8
20260507012330 80 293 0.0 2.0 0.00 0.01 0.01 72 1013.9
20260507011830 80 0 1.0 3.0 0.00 0.01 0.01 73 1013.8
20260507011326 81 226 1.0 3.0 0.00 0.01 0.01 73 1013.9
20260507010823 81 57 1.0 3.0 0.00 0.01 0.01 73 1013.9
20260507010323 82 103 2.0 4.0 0.00 0.01 0.01 71 1014.0
20260507005819 82 353 2.0 4.0 0.00 0.01 0.01 72 1013.9
20260507005323 82 265 1.0 4.0 0.00 0.01 0.01 68 1013.8
20260507004815 82 314 3.0 7.0 0.00 0.01 0.01 70 1013.7
20260507004311 83 88 2.0 7.0 0.00 0.01 0.01 69 1013.6
20260507003810 83 123 2.0 6.0 0.00 0.01 0.01 69 1013.7
20260507003310 83 166 1.0 6.0 0.00 0.01 0.01 69 1013.6
20260507002810 84 304 2.0 6.0 0.00 0.01 0.01 68 1013.6
20260507001806 85 256 2.0 6.0 0.00 0.01 0.01 62 1013.2
20260507001306 85 0 2.0 6.0 0.00 0.01 0.01 54 1013.1
20260507000806 86 92 0.0 3.0 0.00 0.01 0.01 53 1012.7
20260507000307 86 0 0.0 0.0 0.00 0.01 0.01 52 1012.5
20260506235807 87 0 0.0 0.0 0.00 0.01 0.01 51 1012.3
20260506235307 87 0 0.0 2.0 0.00 0.01 0.01 51 1012.3
20260506234807 88 0 0.0 4.0 0.00 0.01 0.01 50 1012.4
20260506233806 89 0 1.0 4.0 0.00 0.00 0.00 48 1012.4
20260506233308 89 333 1.0 4.0 0.00 0.00 0.00 48 1012.4
20260506232806 90 0 1.0 4.0 0.00 0.00 0.00 47 1012.4
20260506232307 91 0 1.0 4.0 0.00 0.00 0.00 47 1012.3
20260506231804 91 237 1.0 4.0 0.00 0.00 0.00 46 1012.2
20260506230805 91 308 0.0 3.0 0.00 0.01 0.00 46 1012.2
20260506230304 91 238 1.0 4.0 0.00 0.01 0.00 45 1012.2
20260506225805 92 0 1.0 4.0 0.00 0.01 0.00 45 1012.4
20260506225309 92 0 1.0 3.0 0.00 0.01 0.00 45 1012.4
20260506224805 93 0 1.0 3.0 0.00 0.01 0.00 45 1012.4
20260506224305 93 177 1.0 3.0 0.00 0.01 0.00 45 1012.4
20260506223805 93 0 1.0 4.0 0.00 0.01 0.00 43 1012.4
20260506223305 93 229 1.0 5.0 0.00 0.01 0.00 45 1012.4
20260506222801 93 210 1.0 5.0 0.00 0.01 0.00 44 1012.5
20260506222305 92 0 1.0 4.0 0.00 0.01 0.00 44 1012.5
20260506221301 92 283 2.0 5.0 0.00 0.01 0.00 45 1012.4
20260506220801 93 208 2.0 10.0 0.00 0.01 0.00 44 1012.5
20260506220300 92 295 3.0 10.0 0.00 0.01 0.00 44 1012.4
20260506215800 92 280 4.0 10.0 0.00 0.01 0.00 44 1012.2
20260506214803 93 200 2.0 6.0 0.00 0.01 0.00 43 1012.3
20260506213801 93 326 2.0 7.0 0.00 0.01 0.00 45 1012.3
20260506212800 94 273 2.0 6.0 0.00 0.04 0.00 42 1012.4
20260506212302 93 254 1.0 4.0 0.00 0.04 0.00 43 1012.4
20260506211301 92 287 2.0 4.0 0.00 0.04 0.00 44 1012.5
20260506210801 92 0 2.0 4.0 0.00 0.04 0.00 44 1012.5
20260506210302 93 220 2.0 6.0 0.00 0.04 0.00 44 1012.5
20260506205301 92 0 2.0 9.0 0.00 0.04 0.00 43 1012.6
20260506203802 94 295 2.0 7.0 0.00 0.04 0.00 43 1012.7
20260506203301 93 0 1.0 7.0 0.00 0.04 0.00 42 1012.7
20260506202801 92 186 2.0 7.0 0.00 0.04 0.00 45 1012.7
20260506202301 91 219 2.0 5.0 0.00 0.04 0.00 45 1012.8
20260506201802 91 233 2.0 5.0 0.00 0.04 0.00 46 1012.8
20260506201301 91 157 2.0 5.0 0.00 0.04 0.00 47 1012.8
20260506200801 90 51 2.0 7.0 0.00 0.04 0.00 49 1012.9
20260506195801 91 96 2.0 8.0 0.00 0.04 0.00 48 1013.1
20260506195301 91 183 3.0 9.0 0.00 0.04 0.00 48 1013.1
20260506194801 90 225 3.0 9.0 0.00 0.04 0.00 50 1013.2
20260506194301 91 140 2.0 6.0 0.00 0.04 0.00 48 1013.3
20260506193801 91 0 2.0 5.0 0.00 0.04 0.00 48 1013.4
20260506192800 90 211 4.0 7.0 0.00 0.04 0.00 49 1013.6
20260506192305 90 70 2.0 6.0 0.00 0.04 0.00 51 1013.6
20260506191301 91 337 2.0 5.0 0.00 0.04 0.00 48 1013.8
20260506190801 90 218 2.0 6.0 0.00 0.04 0.00 52 1013.8
20260506190301 89 0 3.0 7.0 0.00 0.04 0.00 52 1013.8
20260506185802 90 134 3.0 8.0 0.00 0.04 0.00 50 1014.0
20260506185306 90 206 3.0 9.0 0.00 0.04 0.00 50 1014.0
20260506184302 90 0 2.0 8.0 0.00 0.04 0.00 51 1014.1
20260506183800 90 93 2.0 7.0 0.00 0.04 0.00 50 1014.2
20260506183301 90 280 3.0 7.0 0.00 0.04 0.00 50 1014.3
20260506182301 90 23 2.0 6.0 0.00 0.04 0.00 50 1014.3
20260506181802 89 176 2.0 6.0 0.00 0.04 0.00 52 1014.6
20260506181301 89 329 2.0 6.0 0.00 0.04 0.00 52 1014.5
20260506180801 89 309 2.0 6.0 0.00 0.04 0.00 50 1014.7
20260506180301 88 0 3.0 6.0 0.00 0.04 0.00 52 1014.7
20260506175802 88 140 3.0 6.0 0.00 0.04 0.00 55 1014.7
20260506175301 89 123 2.0 6.0 0.00 0.04 0.00 53 1014.8
20260506174802 88 52 2.0 6.0 0.00 0.04 0.00 52 1014.8
20260506174301 87 205 3.0 5.0 0.00 0.04 0.00 56 1014.9
20260506173802 87 117 2.0 5.0 0.00 0.04 0.00 55 1014.9
20260506173301 87 0 2.0 7.0 0.00 0.04 0.00 56 1015.0
20260506172801 87 212 2.0 7.0 0.00 0.04 0.00 57 1015.1
20260506172301 87 226 3.0 6.0 0.00 0.04 0.00 55 1015.2
20260506171300 86 141 2.0 8.0 0.00 0.04 0.00 57 1015.3
20260506170800 86 0 3.0 8.0 0.00 0.04 0.00 59 1015.4
20260506170301 86 223 2.0 5.0 0.00 0.04 0.00 58 1015.4
20260506165800 85 240 2.0 5.0 0.00 0.04 0.00 57 1015.5
20260506165306 85 187 2.0 5.0 0.00 0.04 0.00 59 1015.5
20260506164801 86 224 2.0 5.0 0.00 0.04 0.00 58 1015.6
20260506163801 86 200 2.0 5.0 0.00 0.04 0.00 59 1015.7
20260506163301 86 156 2.0 4.0 0.00 0.04 0.00 59 1015.8
20260506162801 85 197 2.0 6.0 0.00 0.04 0.00 60 1015.7
20260506162301 86 199 2.0 6.0 0.00 0.04 0.00 59 1015.8
20260506161301 84 137 3.0 8.0 0.00 0.04 0.00 61 1015.9
20260506160801 84 119 3.0 8.0 0.00 0.04 0.00 64 1015.9
20260506160301 84 170 3.0 5.0 0.00 0.04 0.00 62 1016.0
20260506155804 84 193 3.0 4.0 0.00 0.04 0.00 61 1016.0
20260506155305 84 162 3.0 5.0 0.00 0.04 0.00 61 1015.9
20260506154801 84 163 3.0 5.0 0.00 0.04 0.00 62 1016.0
20260506154301 83 236 2.0 5.0 0.00 0.04 0.00 62 1015.9
20260506153301 83 220 2.0 6.0 0.00 0.04 0.00 64 1016.0
20260506152801 83 215 2.0 6.0 0.00 0.04 0.00 62 1016.1
20260506152301 83 121 2.0 6.0 0.00 0.04 0.00 63 1016.0
20260506151801 83 163 2.0 6.0 0.00 0.04 0.00 64 1016.0
20260506151301 83 150 2.0 6.0 0.00 0.04 0.00 63 1015.9
20260506150801 82 0 2.0 6.0 0.00 0.04 0.00 65 1015.9
20260506150304 82 311 2.0 6.0 0.00 0.04 0.00 65 1015.9
20260506145800 81 223 2.0 4.0 0.00 0.04 0.00 66 1015.9
20260506145305 80 146 2.0 5.0 0.00 0.04 0.00 66 1015.8
20260506144802 80 195 3.0 5.0 0.00 0.04 0.00 67 1015.8
20260506144302 80 200 3.0 5.0 0.00 0.04 0.00 69 1015.7
20260506143802 80 192 3.0 6.0 0.00 0.04 0.00 68 1015.7
20260506143301 80 172 2.0 6.0 0.00 0.04 0.00 67 1015.6
20260506142801 79 152 2.0 4.0 0.00 0.04 0.00 69 1015.7
20260506142301 79 218 2.0 4.0 0.00 0.04 0.00 69 1015.6
20260506141302 78 0 2.0 5.0 0.00 0.04 0.00 71 1015.7
20260506140801 78 201 2.0 4.0 0.00 0.04 0.00 71 1015.7
20260506140302 78 0 3.0 10.0 0.00 0.04 0.00 71 1015.8
20260506135801 77 108 3.0 10.0 0.00 0.04 0.00 72 1015.7
20260506135305 77 0 3.0 6.0 0.00 0.04 0.00 74 1015.7
20260506134801 77 160 2.0 6.0 0.00 0.04 0.00 75 1015.7
20260506134305 76 128 2.0 6.0 0.00 0.04 0.00 76 1015.8
20260506133800 76 222 2.0 6.0 0.00 0.04 0.00 76 1015.8
20260506133301 76 0 2.0 6.0 0.00 0.04 0.00 76 1015.8
20260506132801 76 156 2.0 6.0 0.00 0.04 0.00 77 1015.9
20260506132301 74 182 2.0 5.0 0.00 0.04 0.00 78 1015.9
20260506131802 74 201 2.0 4.0 0.00 0.04 0.00 78 1015.9
20260506131302 74 223 2.0 7.0 0.00 0.04 0.00 79 1015.9
20260506130803 73 205 2.0 7.0 0.00 0.04 0.00 80 1015.9
20260506130301 72 187 1.0 7.0 0.00 0.04 0.00 81 1015.7
20260506125801 72 0 1.0 3.0 0.00 0.04 0.00 81 1015.8
20260506125301 71 200 1.0 4.0 0.00 0.04 0.00 82 1015.8
20260506124802 71 191 1.0 4.0 0.00 0.04 0.00 83 1015.7
20260506124301 71 0 1.0 3.0 0.00 0.04 0.00 82 1015.6
20260506123800 70 162 1.0 3.0 0.00 0.04 0.00 83 1015.6
20260506123301 69 0 0.0 3.0 0.00 0.04 0.00 84 1015.6
20260506121801 66 158 0.0 5.0 0.00 0.04 0.00 90 1015.3
20260506120301 64 0 0.0 0.0 0.00 0.04 0.00 95 1015.1
20260506115801 63 0 0.0 0.0 0.00 0.04 0.00 95 1015.1
20260506115300 62 0 0.0 0.0 0.00 0.04 0.00 96 1015.0
20260506114802 62 0 0.0 0.0 0.00 0.04 0.00 96 1015.0
20260506114302 61 0 0.0 0.0 0.00 0.04 0.00 96 1015.1
20260506113802 61 0 0.0 0.0 0.00 0.04 0.00 96 1015.1
20260506113302 60 0 0.0 0.0 0.00 0.04 0.00 96 1015.1
20260506112802 60 0 0.0 0.0 0.00 0.04 0.00 96 1015.1
20260506112302 59 0 0.0 0.0 0.00 0.04 0.00 96 1015.0
20260506111300 59 0 0.0 1.0 0.00 0.04 0.00 95 1015.0
20260506110802 59 0 0.0 1.0 0.00 0.04 0.00 95 1014.9
20260506110302 59 206 0.0 1.0 0.00 0.04 0.00 95 1014.9
20260506105806 59 0 0.0 0.0 0.00 0.04 0.00 95 1014.8
20260506104803 59 0 0.0 0.0 0.00 0.04 0.00 95 1014.7
20260506104301 59 0 0.0 0.0 0.00 0.04 0.00 95 1014.7
20260506103801 59 0 0.0 0.0 0.00 0.04 0.00 95 1014.6
20260506103302 60 0 0.0 1.0 0.00 0.04 0.00 95 1014.5
20260506102800 60 0 0.0 2.0 0.00 0.04 0.00 95 1014.5
20260506102305 60 293 0.0 2.0 0.00 0.04 0.00 95 1014.6
20260506101802 60 0 0.0 0.0 0.00 0.04 0.00 94 1014.5